QPF
0.00 0.00 0.00 0.00 0.00 0.00 0.00 0.00 0.00 0.00 0.00 0.01 0.00 0.00 0.00 0.00 0.00 0.00 0.00 0.00 0.00 0.00 0.00 0.00 0.00 0.00 0.00 0.00 0.00 0.00 0.00 0.00 0.00 0.00 0.00 0.00 0.00 0.00 0.00 0.00 0.00 0.00 0.00 0.00
0.01 0.01 0.00 0.00 0.00 0.00 0.00 0.01 0.01 0.01 0.01 0.01 0.01 0.00 0.00 0.00 0.00 0.00 0.00 0.00 0.00 0.00 0.00 0.00 0.00 0.00 0.00 0.00 0.00 0.00 0.00 0.00 0.00 0.00 0.00 0.00 0.00 0.00 0.00 0.00 0.00 0.00 0.00 0.00
0.00 0.00 0.00 0.00 0.00 0.00 0.00 0.01 0.01 0.01 0.02 0.03 0.03 0.01 0.00 0.00 0.00 0.00 0.00 0.00 0.00 0.00 0.00 0.00 0.00 0.00 0.00 0.00 0.00 0.00 0.00 0.00 0.00 0.00 0.00 0.00 0.00 0.00 0.00 0.00 0.00 0.00 0.00 0.00
0.01 0.00 0.00 0.00 0.00 0.00 0.00 0.00 0.01 0.02 0.04 0.07 0.07 0.04 0.00 0.00 0.00 0.00 0.00 0.00 0.00 0.00 0.00 0.00 0.00 0.00 0.00 0.00 0.00 0.00 0.00 0.00 0.00 0.00 0.00 0.00 0.00 0.00 0.00 0.00 0.00 0.00 0.00 0.00
0.02 0.00 0.00 0.00 0.00 0.00 0.00 0.00 0.02 0.04 0.07 0.11 0.10 0.06 0.01 0.00 0.00 0.00 0.00 0.00 0.00 0.00 0.00 0.00 0.00 0.00 0.00 0.00 0.00 0.00 0.00 0.00 0.00 0.00 0.00 0.00 0.00 0.00 0.00 0.00 0.00 0.00 0.00 0.00
0.03 0.01 0.01 0.01 0.00 0.00 0.01 0.03 0.05 0.08 0.16 0.22 0.13 0.10 0.04 0.00 0.00 0.00 0.00 0.00 0.00 0.00 0.00 0.00 0.00 0.00 0.00 0.00 0.00 0.00 0.00 0.00 0.00 0.00 0.00 0.00 0.00 0.00 0.00 0.00 0.00 0.00 0.00 0.00
0.07 0.02 0.01 0.01 0.02 0.01 0.03 0.10 0.18 0.19 0.27 0.25 0.10 0.10 0.05 0.00 0.00 0.00 0.00 0.00 0.00 0.00 0.00 0.00 0.00 0.00 0.00 0.00 0.00 0.00 0.00 0.00 0.00 0.00 0.00 0.00 0.00 0.00 0.00 0.00 0.00 0.00 0.00 0.00
0.06 0.02 0.01 0.01 0.02 0.03 0.04 0.12 0.22 0.20 0.17 0.12 0.09 0.09 0.03 0.00 0.00 0.00 0.00 0.00 0.00 0.00 0.00 0.00 0.00 0.00 0.00 0.00 0.00 0.00 0.00 0.00 0.00 0.00 0.00 0.00 0.00 0.00 0.00 0.00 0.00 0.00 0.00 0.00
0.06 0.04 0.03 0.02 0.02 0.06 0.08 0.10 0.18 0.28 0.19 0.11 0.10 0.07 0.02 0.00 0.00 0.00 0.00 0.00 0.00 0.00 0.00 0.00 0.00 0.00 0.00 0.00 0.00 0.00 0.00 0.00 0.00 0.00 0.00 0.00 0.00 0.00 0.00 0.00 0.00 0.00 0.00 0.00
0.06 0.11 0.09 0.09 0.11 0.10 0.12 0.13 0.24 0.44 0.36 0.19 0.09 0.05 0.01 0.00 0.00 0.00 0.00 0.00 0.00 0.00 0.00 0.00 0.00 0.00 0.00 0.00 0.00 0.00 0.00 0.00 0.00 0.00 0.00 0.00 0.00 0.00 0.00 0.00 0.00 0.00 0.00 0.00
0.05 0.14 0.14 0.17 0.17 0.11 0.14 0.21 0.31 0.36 0.32 0.27 0.11 0.03 0.00 0.00 0.00 0.00 0.00 0.00 0.00 0.00 0.00 0.00 0.00 0.00 0.00 0.00 0.00 0.00 0.00 0.00 0.00 0.00 0.00 0.00 0.00 0.00 0.00 0.00 0.00 0.00 0.00 0.00
0.07 0.14 0.14 0.12 0.13 0.12 0.15 0.20 0.27 0.31 0.27 0.21 0.12 0.02 0.00 0.00 0.00 0.00 0.00 0.00 0.00 0.00 0.00 0.00 0.00 0.00 0.00 0.00 0.00 0.00 0.00 0.00 0.00 0.00 0.00 0.00 0.00 0.00 0.00 0.00 0.00 0.00 0.00 0.00
0.14 0.21 0.25 0.18 0.18 0.20 0.23 0.23 0.25 0.29 0.33 0.23 0.13 0.03 0.00 0.00 0.00 0.00 0.00 0.00 0.00 0.00 0.00 0.00 0.00 0.00 0.00 0.00 0.00 0.00 0.00 0.00 0.00 0.00 0.00 0.00 0.00 0.00 0.00 0.00 0.00 0.00 0.00 0.00
0.27 0.34 0.34 0.28 0.19 0.15 0.17 0.19 0.23 0.31 0.33 0.19 0.09 0.02 0.00 0.00 0.00 0.00 0.00 0.00 0.00 0.00 0.00 0.00 0.00 0.00 0.00 0.00 0.00 0.00 0.00 0.00 0.00 0.00 0.00 0.00 0.00 0.00 0.00 0.00 0.00 0.00 0.00 0.00
0.30 0.45 0.38 0.23 0.14 0.11 0.10 0.15 0.19 0.25 0.23 0.15 0.06 0.02 0.01 0.00 0.00 0.00 0.00 0.00 0.00 0.00 0.00 0.00 0.00 0.00 0.00 0.00 0.00 0.00 0.00 0.00 0.00 0.00 0.00 0.00 0.00 0.00 0.00 0.00 0.00 0.00 0.00 0.00
0.18 0.33 0.33 0.20 0.10 0.10 0.09 0.12 0.15 0.19 0.16 0.11 0.05 0.02 0.00 0.00 0.00 0.00 0.00 0.00 0.00 0.00 0.00 0.00 0.00 0.00 0.00 0.00 0.00 0.00 0.00 0.00 0.00 0.00 0.00 0.00 0.00 0.00 0.00 0.00 0.00 0.00 0.00 0.00
0.09 0.18 0.23 0.17 0.12 0.12 0.10 0.07 0.09 0.12 0.09 0.06 0.04 0.01 0.00 0.00 0.00 0.00 0.00 0.00 0.00 0.00 0.00 0.00 0.00 0.00 0.00 0.00 0.00 0.00 0.00 0.00 0.00 0.00 0.00 0.00 0.00 0.00 0.00 0.00 0.00 0.00 0.00 0.00
0.02 0.07 0.10 0.07 0.06 0.06 0.04 0.02 0.02 0.04 0.04 0.03 0.02 0.01 0.00 0.00 0.00 0.00 0.00 0.00 0.00 0.00 0.00 0.00 0.00 0.00 0.00 0.00 0.00 0.00 0.00 0.00 0.00 0.00 0.00 0.00 0.00 0.00 0.00 0.00 0.00 0.00 0.00 0.00
0.01 0.02 0.03 0.02 0.01 0.01 0.00 0.00 0.00 0.01 0.01 0.01 0.01 0.00 0.00 0.00 0.00 0.00 0.00 0.00 0.00 0.00 0.00 0.00 0.00 0.00 0.00 0.00 0.00 0.00 0.00 0.00 0.00 0.00 0.00 0.00 0.00 0.00 0.00 0.00 0.00 0.00 0.00 0.00
0.01 0.01 0.01 0.01 0.00 0.00 0.00 0.00 0.00 0.00 0.00 0.00 0.00 0.00 0.00 0.00 0.00 0.00 0.00 0.00 0.00 0.00 0.00 0.00 0.00 0.00 0.00 0.00 0.00 0.00 0.00 0.00 0.00 0.00 0.00 0.00 0.00 0.00 0.00 0.00 0.00 0.00 0.00 0.00
0.01 0.02 0.01 0.01 0.00 0.00 0.00 0.00 0.00 0.00 0.00 0.00 0.00 0.00 0.00 0.00 0.00 0.00 0.00 0.00 0.00 0.00 0.00 0.00 0.00 0.00 0.00 0.00 0.00 0.00 0.00 0.00 0.00 0.00 0.00 0.00 0.00 0.00 0.00 0.00 0.00 0.00 0.00 0.00
0.00 0.00 0.00 0.00 0.00 0.00 0.00 0.00 0.00 0.00 0.00 0.00 0.00 0.00 0.00 0.00 0.00 0.00 0.00 0.00 0.00 0.00 0.00 0.00 0.00 0.00 0.00 0.00 0.00 0.00 0.00 0.00 0.00 0.00 0.00 0.00 0.00 0.00 0.00 0.00 0.00 0.00 0.00 0.00
0.00 0.00 0.00 0.00 0.00 0.00 0.00 0.00 0.00 0.00 0.00 0.00 0.00 0.00 0.00 0.00 0.00 0.00 0.00 0.00 0.00 0.00 0.00 0.00 0.00 0.00 0.00 0.00 0.00 0.00 0.00 0.00 0.00 0.00 0.00 0.00 0.00 0.00 0.00 0.00 0.00 0.00 0.00 0.00
0.00 0.00 0.00 0.00 0.00 0.00 0.00 0.00 0.00 0.00 0.00 0.00 0.00 0.00 0.00 0.00 0.00 0.00 0.00 0.00 0.00 0.00 0.00 0.00 0.00 0.00 0.00 0.00 0.00 0.00 0.00 0.00 0.00 0.00 0.00 0.00 0.00 0.00 0.00 0.00 0.00 0.00 0.00 0.00
0.00 0.00 0.00 0.00 0.00 0.00 0.00 0.00 0.00 0.00 0.00 0.00 0.00 0.00 0.00 0.00 0.00 0.00 0.00 0.00 0.00 0.00 0.00 0.00 0.00 0.00 0.00 0.00 0.00 0.00 0.00 0.00 0.00 0.00 0.00 0.00 0.00 0.00 0.00 0.00 0.00 0.00 0.00 0.00
0.00 0.00 0.00 0.00 0.00 0.00 0.00 0.00 0.00 0.00 0.00 0.00 0.00 0.00 0.00 0.00 0.00 0.00 0.00 0.00 0.00 0.00 0.00 0.00 0.00 0.00 0.00 0.00 0.00 0.00 0.00 0.00 0.00 0.00 0.00 0.00 0.00 0.00 0.00 0.00 0.00 0.00 0.00 0.00
MSLP
1014.80 1014.99 1015.06 1015.03 1014.92 1014.75 1014.53 1014.28 1013.96 1013.56 1013.07 1012.48 1011.80 1011.06 1010.30 1009.60 1009.00 1008.55 1008.27 1008.15 1008.16 1008.25 1008.38 1008.49 1008.56 1008.59 1008.59 1008.59 1008.66 1008.82 1009.13 1009.57 1010.15 1010.83 1011.56 1012.29 1012.98 1013.60 1014.12 1014.54 1014.88 1015.16 1015.40 1015.63
1014.56 1014.66 1014.68 1014.63 1014.56 1014.48 1014.39 1014.26 1014.06 1013.75 1013.28 1012.65 1011.87 1010.99 1010.08 1009.23 1008.52 1008.01 1007.73 1007.67 1007.79 1008.02 1008.28 1008.52 1008.69 1008.78 1008.82 1008.84 1008.90 1009.06 1009.37 1009.84 1010.46 1011.19 1011.97 1012.75 1013.49 1014.13 1014.66 1015.08 1015.42 1015.69 1015.93 1016.15
1014.18 1014.19 1014.15 1014.10 1014.08 1014.10 1014.14 1014.15 1014.06 1013.81 1013.34 1012.65 1011.76 1010.72 1009.65 1008.65 1007.83 1007.27 1006.99 1007.00 1007.23 1007.61 1008.03 1008.41 1008.69 1008.87 1008.95 1009.00 1009.08 1009.26 1009.59 1010.09 1010.75 1011.52 1012.35 1013.17 1013.93 1014.58 1015.12 1015.54 1015.87 1016.13 1016.37 1016.59
1013.71 1013.63 1013.54 1013.50 1013.54 1013.65 1013.81 1013.93 1013.93 1013.71 1013.23 1012.45 1011.42 1010.23 1008.98 1007.83 1006.91 1006.30 1006.05 1006.14 1006.50 1007.02 1007.61 1008.14 1008.56 1008.84 1009.00 1009.11 1009.22 1009.43 1009.79 1010.31 1011.00 1011.81 1012.67 1013.52 1014.29 1014.96 1015.49 1015.90 1016.23 1016.49 1016.72 1016.94
1013.22 1013.06 1012.93 1012.90 1012.98 1013.17 1013.42 1013.62 1013.67 1013.46 1012.93 1012.05 1010.88 1009.52 1008.11 1006.83 1005.82 1005.19 1004.97 1005.15 1005.64 1006.33 1007.09 1007.79 1008.36 1008.76 1009.01 1009.18 1009.35 1009.60 1009.98 1010.54 1011.25 1012.08 1012.96 1013.82 1014.60 1015.26 1015.79 1016.20 1016.52 1016.77 1017.00 1017.23
1012.76 1012.53 1012.37 1012.33 1012.44 1012.69 1012.99 1013.24 1013.31 1013.07 1012.47 1011.48 1010.17 1008.66 1007.12 1005.74 1004.67 1004.03 1003.86 1004.14 1004.77 1005.63 1006.56 1007.43 1008.15 1008.68 1009.04 1009.30 1009.52 1009.81 1010.23 1010.80 1011.53 1012.36 1013.24 1014.10 1014.88 1015.53 1016.05 1016.45 1016.76 1017.02 1017.25 1017.46
1012.33 1012.04 1011.84 1011.80 1011.93 1012.20 1012.53 1012.80 1012.85 1012.57 1011.89 1010.80 1009.38 1007.76 1006.12 1004.67 1003.57 1002.95 1002.84 1003.22 1003.99 1005.00 1006.10 1007.13 1008.00 1008.66 1009.14 1009.48 1009.78 1010.11 1010.55 1011.14 1011.86 1012.68 1013.55 1014.39 1015.15 1015.78 1016.29 1016.69 1016.99 1017.24 1017.47 1017.67
1011.87 1011.54 1011.32 1011.26 1011.40 1011.68 1012.01 1012.27 1012.29 1011.96 1011.22 1010.06 1008.57 1006.89 1005.20 1003.73 1002.64 1002.06 1002.03 1002.50 1003.39 1004.53 1005.76 1006.94 1007.94 1008.73 1009.32 1009.75 1010.12 1010.50 1010.96 1011.55 1012.26 1013.06 1013.89 1014.69 1015.42 1016.04 1016.53 1016.91 1017.21 1017.46 1017.68 1017.87
1011.31 1010.95 1010.71 1010.65 1010.78 1011.06 1011.38 1011.62 1011.62 1011.27 1010.50 1009.32 1007.81 1006.12 1004.45 1003.00 1001.96 1001.44 1001.47 1002.02 1003.00 1004.23 1005.57 1006.85 1007.97 1008.87 1009.56 1010.08 1010.52 1010.94 1011.43 1012.01 1012.70 1013.46 1014.25 1015.01 1015.70 1016.29 1016.76 1017.13 1017.43 1017.66 1017.87 1018.04
1010.56 1010.20 1009.95 1009.89 1010.02 1010.29 1010.60 1010.83 1010.82 1010.47 1009.71 1008.56 1007.10 1005.48 1003.89 1002.52 1001.55 1001.09 1001.18 1001.79 1002.81 1004.09 1005.48 1006.83 1008.03 1009.02 1009.80 1010.41 1010.92 1011.40 1011.91 1012.50 1013.16 1013.88 1014.62 1015.33 1015.98 1016.53 1016.97 1017.33 1017.61 1017.84 1018.02 1018.17
1009.58 1009.23 1008.99 1008.93 1009.06 1009.32 1009.63 1009.85 1009.85 1009.53 1008.84 1007.79 1006.45 1004.96 1003.49 1002.25 1001.38 1000.99 1001.13 1001.75 1002.76 1004.04 1005.44 1006.81 1008.05 1009.11 1009.97 1010.67 1011.25 1011.80 1012.35 1012.95 1013.60 1014.29 1014.98 1015.63 1016.23 1016.74 1017.15 1017.49 1017.75 1017.97 1018.13 1018.26
1008.40 1008.07 1007.85 1007.80 1007.92 1008.17 1008.46 1008.68 1008.71 1008.46 1007.87 1006.95 1005.78 1004.48 1003.20 1002.11 1001.36 1001.05 1001.20 1001.81 1002.79 1004.02 1005.37 1006.73 1007.98 1009.08 1010.01 1010.80 1011.48 1012.10 1012.71 1013.33 1013.98 1014.64 1015.29 1015.90 1016.45 1016.91 1017.30 1017.61 1017.85 1018.05 1018.19 1018.29
1007.11 1006.81 1006.62 1006.57 1006.67 1006.89 1007.15 1007.36 1007.42 1007.23 1006.77 1006.02 1005.06 1003.98 1002.92 1002.01 1001.40 1001.16 1001.34 1001.91 1002.81 1003.96 1005.25 1006.55 1007.79 1008.92 1009.92 1010.79 1011.57 1012.28 1012.96 1013.64 1014.30 1014.95 1015.57 1016.14 1016.64 1017.06 1017.41 1017.70 1017.92 1018.09 1018.22 1018.29
1005.86 1005.59 1005.41 1005.34 1005.40 1005.56 1005.77 1005.95 1006.01 1005.89 1005.55 1004.99 1004.25 1003.42 1002.59 1001.89 1001.43 1001.28 1001.47 1002.00 1002.82 1003.87 1005.06 1006.30 1007.52 1008.67 1009.72 1010.68 1011.56 1012.37 1013.14 1013.87 1014.56 1015.21 1015.81 1016.35 1016.81 1017.20 1017.51 1017.77 1017.98 1018.13 1018.23 1018.28
1004.79 1004.55 1004.36 1004.25 1004.23 1004.30 1004.42 1004.53 1004.57 1004.50 1004.27 1003.88 1003.36 1002.78 1002.20 1001.72 1001.42 1001.37 1001.59 1002.09 1002.84 1003.79 1004.88 1006.05 1007.23 1008.39 1009.50 1010.53 1011.51 1012.42 1013.27 1014.06 1014.78 1015.45 1016.03 1016.54 1016.97 1017.33 1017.62 1017.86 1018.04 1018.18 1018.26 1018.28
1004.02 1003.78 1003.56 1003.38 1003.26 1003.20 1003.19 1003.20 1003.19 1003.12 1002.97 1002.74 1002.44 1002.09 1001.77 1001.51 1001.40 1001.46 1001.73 1002.22 1002.92 1003.79 1004.80 1005.89 1007.04 1008.19 1009.33 1010.43 1011.48 1012.47 1013.39 1014.24 1015.00 1015.67 1016.25 1016.73 1017.14 1017.47 1017.74 1017.96 1018.13 1018.25 1018.31 1018.31
1003.56 1003.32 1003.06 1002.79 1002.53 1002.32 1002.16 1002.04 1001.95 1001.86 1001.78 1001.67 1001.56 1001.45 1001.36 1001.34 1001.41 1001.62 1001.96 1002.47 1003.14 1003.95 1004.89 1005.93 1007.03 1008.17 1009.32 1010.45 1011.55 1012.59 1013.56 1014.44 1015.21 1015.89 1016.46 1016.93 1017.31 1017.62 1017.88 1018.08 1018.23 1018.34 1018.39 1018.38
1003.38 1003.13 1002.81 1002.44 1002.06 1001.69 1001.37 1001.12 1000.93 1000.82 1000.78 1000.78 1000.84 1000.94 1001.08 1001.29 1001.56 1001.91 1002.36 1002.91 1003.58 1004.36 1005.24 1006.22 1007.28 1008.38 1009.52 1010.65 1011.76 1012.82 1013.80 1014.68 1015.45 1016.11 1016.66 1017.11 1017.48 1017.77 1018.01 1018.20 1018.35 1018.44 1018.48 1018.45
1003.34 1003.09 1002.72 1002.27 1001.77 1001.28 1000.83 1000.46 1000.20 1000.07 1000.06 1000.17 1000.37 1000.66 1001.02 1001.43 1001.89 1002.40 1002.95 1003.57 1004.26 1005.03 1005.87 1006.80 1007.80 1008.86 1009.95 1011.05 1012.13 1013.16 1014.11 1014.97 1015.71 1016.34 1016.86 1017.29 1017.63 1017.91 1018.14 1018.32 1018.45 1018.53 1018.55 1018.50
1003.31 1003.06 1002.67 1002.16 1001.60 1001.02 1000.49 1000.06 999.77 999.64 999.68 999.88 1000.22 1000.68 1001.22 1001.81 1002.44 1003.09 1003.76 1004.45 1005.17 1005.93 1006.75 1007.63 1008.57 1009.56 1010.59 1011.62 1012.64 1013.60 1014.50 1015.30 1015.99 1016.57 1017.06 1017.45 1017.77 1018.03 1018.24 1018.40 1018.52 1018.58 1018.58 1018.49
1003.16 1002.92 1002.53 1002.03 1001.45 1000.86 1000.32 999.89 999.62 999.53 999.64 999.94 1000.40 1001.00 1001.69 1002.43 1003.20 1003.97 1004.73 1005.48 1006.23 1007.00 1007.79 1008.62 1009.50 1010.42 1011.36 1012.31 1013.23 1014.12 1014.93 1015.65 1016.28 1016.81 1017.25 1017.61 1017.90 1018.13 1018.32 1018.46 1018.55 1018.58 1018.54 1018.41
1002.81 1002.60 1002.26 1001.80 1001.29 1000.76 1000.28 999.92 999.73 999.72 999.92 1000.32 1000.89 1001.59 1002.39 1003.24 1004.11 1004.96 1005.79 1006.58 1007.36 1008.12 1008.89 1009.68 1010.50 1011.34 1012.20 1013.05 1013.88 1014.67 1015.39 1016.03 1016.59 1017.06 1017.45 1017.77 1018.02 1018.23 1018.38 1018.49 1018.54 1018.53 1018.44 1018.26
1002.28 1002.11 1001.84 1001.49 1001.09 1000.69 1000.35 1000.12 1000.05 1000.16 1000.47 1000.96 1001.62 1002.40 1003.26 1004.17 1005.09 1005.98 1006.84 1007.66 1008.45 1009.21 1009.96 1010.71 1011.48 1012.25 1013.03 1013.79 1014.53 1015.22 1015.86 1016.42 1016.91 1017.32 1017.67 1017.95 1018.17 1018.34 1018.45 1018.52 1018.52 1018.44 1018.29 1018.05
1001.62 1001.52 1001.35 1001.13 1000.89 1000.67 1000.51 1000.46 1000.55 1000.80 1001.22 1001.79 1002.51 1003.33 1004.22 1005.14 1006.06 1006.96 1007.83 1008.64 1009.43 1010.18 1010.92 1011.64 1012.36 1013.08 1013.79 1014.49 1015.14 1015.76 1016.32 1016.81 1017.24 1017.60 1017.91 1018.15 1018.33 1018.46 1018.54 1018.55 1018.48 1018.34 1018.12 1017.80
1000.95 1000.91 1000.86 1000.79 1000.73 1000.72 1000.76 1000.91 1001.17 1001.56 1002.09 1002.73 1003.48 1004.31 1005.19 1006.08 1006.98 1007.85 1008.69 1009.49 1010.26 1011.00 1011.73 1012.44 1013.13 1013.81 1014.47 1015.11 1015.71 1016.26 1016.75 1017.19 1017.57 1017.89 1018.16 1018.37 1018.52 1018.61 1018.63 1018.59 1018.46 1018.24 1017.94 1017.55
1000.38 1000.41 1000.47 1000.56 1000.69 1000.87 1001.12 1001.46 1001.88 1002.41 1003.02 1003.71 1004.47 1005.28 1006.12 1006.96 1007.80 1008.63 1009.43 1010.20 1010.95 1011.69 1012.40 1013.10 1013.78 1014.43 1015.06 1015.65 1016.20 1016.70 1017.15 1017.54 1017.88 1018.17 1018.40 1018.58 1018.70 1018.75 1018.73 1018.62 1018.43 1018.15 1017.78 1017.32
Thickness
5550 5542 5546 5551 5554 5559 5561 5566 5569 5578 5589 5593 5606 5621 5632 5644 5651 5656 5661 5666 5670 5677 5682 5686 5690 5693 5694 5694 5695 5695 5693 5691 5689 5683 5677 5670 5663 5659 5656 5652 5648 5645 5641 5637
5532 5535 5543 5542 5542 5543 5546 5549 5556 5563 5573 5579 5589 5607 5626 5639 5648 5656 5661 5663 5665 5668 5673 5678 5682 5685 5687 5687 5687 5686 5684 5682 5680 5677 5671 5664 5657 5650 5645 5641 5637 5633 5630 5626
5521 5536 5538 5534 5530 5530 5535 5538 5542 5545 5555 5567 5574 5594 5616 5634 5645 5653 5661 5664 5665 5669 5672 5672 5674 5676 5678 5678 5678 5678 5675 5673 5670 5668 5663 5655 5648 5641 5633 5628 5624 5621 5618 5614
5512 5520 5523 5522 5523 5521 5526 5535 5536 5537 5535 5544 5561 5574 5606 5624 5636 5649 5658 5659 5663 5669 5670 5669 5669 5670 5672 5671 5670 5669 5667 5664 5661 5659 5656 5650 5642 5632 5624 5618 5613 5610 5607 5602
5508 5511 5509 5510 5519 5516 5517 5528 5528 5529 5527 5532 5548 5551 5591 5613 5629 5649 5659 5659 5664 5667 5667 5666 5665 5665 5665 5664 5662 5661 5658 5655 5652 5649 5646 5640 5631 5623 5615 5609 5604 5599 5594 5590
5500 5503 5504 5509 5513 5510 5512 5513 5515 5517 5515 5525 5554 5546 5581 5611 5635 5651 5660 5660 5663 5663 5661 5659 5657 5657 5655 5654 5653 5652 5650 5645 5642 5639 5635 5630 5622 5614 5606 5599 5593 5587 5582 5578
5486 5488 5494 5501 5501 5502 5500 5497 5498 5501 5507 5527 5559 5552 5585 5621 5639 5654 5661 5661 5661 5660 5657 5654 5651 5650 5648 5646 5645 5643 5641 5636 5633 5629 5624 5618 5612 5606 5598 5591 5584 5578 5572 5567
5476 5481 5490 5495 5498 5498 5499 5496 5498 5499 5509 5533 5556 5563 5597 5626 5641 5652 5660 5660 5657 5654 5653 5651 5649 5647 5643 5640 5637 5634 5631 5627 5624 5619 5613 5607 5602 5595 5588 5582 5575 5568 5562 5557
5474 5482 5500 5500 5501 5497 5492 5494 5506 5505 5519 5535 5555 5577 5601 5625 5637 5647 5654 5655 5654 5652 5648 5645 5642 5639 5637 5633 5629 5626 5623 5618 5614 5609 5603 5596 5591 5585 5577 5570 5564 5558 5553 5549
5476 5475 5492 5497 5493 5494 5498 5501 5493 5490 5505 5533 5559 5575 5600 5623 5635 5642 5649 5652 5650 5645 5641 5638 5636 5633 5628 5625 5620 5616 5614 5610 5604 5599 5594 5587 5580 5573 5566 5560 5553 5548 5543 5539
5481 5474 5485 5488 5491 5496 5492 5496 5504 5505 5510 5534 5560 5586 5624 5638 5644 5646 5649 5649 5647 5643 5638 5634 5630 5625 5620 5615 5611 5608 5604 5599 5593 5588 5583 5576 5569 5562 5556 5549 5543 5538 5533 5529
5487 5481 5485 5497 5509 5508 5503 5507 5511 5511 5521 5529 5550 5588 5631 5642 5647 5648 5645 5644 5640 5637 5633 5628 5624 5618 5612 5608 5604 5599 5594 5589 5583 5578 5572 5565 5558 5552 5545 5539 5533 5529 5524 5519
5493 5486 5494 5510 5512 5509 5507 5514 5520 5525 5528 5537 5551 5589 5626 5634 5638 5642 5641 5638 5634 5630 5626 5621 5617 5613 5608 5603 5597 5591 5586 5580 5573 5568 5561 5554 5548 5541 5535 5529 5524 5519 5514 5509
5506 5499 5504 5522 5532 5529 5526 5526 5529 5527 5532 5545 5561 5588 5614 5627 5632 5633 5634 5633 5630 5627 5624 5618 5613 5608 5603 5597 5591 5584 5576 5571 5564 5558 5551 5544 5538 5532 5525 5520 5514 5509 5503 5497
5513 5511 5516 5526 5535 5537 5543 5543 5542 5540 5545 5552 5572 5591 5615 5628 5634 5635 5633 5630 5626 5623 5621 5617 5612 5604 5597 5590 5583 5576 5568 5561 5556 5549 5541 5535 5528 5522 5516 5510 5504 5498 5492 5486
5520 5520 5525 5541 5556 5554 5554 5557 5555 5554 5555 5561 5576 5596 5621 5625 5627 5628 5628 5629 5627 5624 5621 5616 5609 5600 5593 5585 5577 5568 5559 5552 5546 5539 5532 5525 5518 5512 5506 5500 5493 5487 5480 5473
5529 5529 5537 5555 5567 5567 5566 5573 5570 5569 5573 5578 5586 5605 5620 5625 5627 5627 5628 5630 5630 5626 5621 5614 5606 5599 5589 5579 5570 5560 5551 5543 5536 5529 5522 5515 5509 5502 5495 5489 5482 5475 5467 5459
5541 5541 5545 5555 5566 5568 5583 5594 5591 5587 5591 5596 5605 5615 5623 5624 5618 5617 5624 5627 5626 5623 5617 5609 5599 5588 5578 5569 5560 5551 5542 5534 5527 5519 5512 5505 5498 5491 5484 5477 5469 5462 5454 5445
5553 5553 5555 5557 5564 5575 5592 5597 5597 5597 5600 5606 5608 5610 5611 5612 5615 5610 5608 5618 5618 5615 5609 5599 5589 5578 5568 5559 5551 5542 5532 5524 5516 5509 5502 5495 5488 5480 5472 5465 5457 5449 5441 5432
5557 5558 5558 5560 5565 5571 5593 5604 5606 5606 5602 5612 5614 5612 5610 5615 5611 5608 5597 5600 5599 5596 5590 5582 5573 5565 5556 5548 5541 5532 5522 5513 5506 5499 5492 5484 5477 5469 5461 5453 5445 5437 5428 5420
5558 5560 5560 5561 5564 5575 5595 5604 5609 5596 5604 5613 5614 5614 5612 5613 5609 5590 5582 5581 5581 5578 5573 5568 5561 5553 5544 5537 5531 5521 5511 5503 5496 5488 5480 5473 5465 5457 5449 5441 5432 5424 5417 5410
5562 5561 5561 5563 5565 5574 5599 5604 5600 5602 5605 5603 5604 5602 5594 5585 5581 5575 5571 5569 5566 5562 5557 5554 5547 5537 5530 5526 5519 5509 5498 5491 5484 5477 5468 5460 5453 5446 5438 5429 5421 5414 5407 5399
5565 5570 5570 5572 5578 5587 5593 5599 5600 5599 5597 5593 5588 5587 5585 5578 5569 5565 5559 5556 5552 5548 5544 5540 5534 5524 5516 5511 5507 5496 5486 5479 5472 5463 5455 5448 5440 5432 5425 5417 5410 5403 5396 5387
5566 5572 5572 5575 5581 5586 5589 5592 5594 5594 5590 5585 5582 5580 5579 5571 5561 5555 5551 5545 5540 5536 5531 5527 5521 5512 5502 5497 5491 5484 5475 5468 5460 5451 5443 5435 5428 5420 5413 5406 5399 5391 5383 5374
5570 5570 5572 5574 5580 5582 5585 5586 5583 5578 5576 5574 5570 5570 5568 5563 5553 5548 5542 5536 5530 5525 5519 5515 5509 5500 5490 5483 5477 5470 5463 5456 5447 5438 5431 5424 5417 5409 5402 5394 5386 5379 5370 5360
5568 5572 5574 5578 5582 5580 5582 5577 5575 5573 5569 5566 5563 5556 5553 5553 5546 5539 5533 5527 5521 5515 5509 5502 5494 5486 5478 5471 5464 5457 5451 5444 5435 5427 5420 5412 5405 5398 5391 5383 5374 5366 5357 5347